Weather Service Report


002 
ASUS43 KDTX 300301
RWRMI 
MICHIGAN HOURLY REGIONAL WEATHER ROUNDUP
NATIONAL WEATHER SERVICE DETROIT/PONTIAC MI
1100 PM EDT MON MAY 29 2017

NOTE: "FAIR" INDICATES FEW OR NO CLOUDS BELOW 12,000 FEET WITH NO
SIGNIFICANT WEATHER AND/OR OBSTRUCTION TO VISIBILITY.

MIZ047>049-052>055-059>063-066>070-074>076-081>083-300400-
SOUTHEAST LOWER MICHIGAN
  
CITY           SKY/WX    TMP DP  RH WIND       PRES   REMARKS
ADRIAN         CLEAR     59  53  80 NW5       29.89R                  
ALMA           CLEAR     59  45  59 SW3       29.84R                  
ANN ARBOR      MOCLDY    58  52  80 W6        29.86S                  
BAD AXE        CLEAR     60  44  55 SW6       29.83R                  
CARO           CLEAR     63  44  51 SW9       29.83R                  
DETROIT CITY   MOCLDY    64  52  64 SW7       29.86R                  
DETROIT        MOCLDY    61  55  81 W5        29.87R                  
FLINT          CLEAR     62  43  49 SW6       29.85R                  
GROSSE ILE     CLOUDY    61  53  76 CALM      29.85F                  
HILLSDALE      CLEAR     61  43  51 W5        29.89R                  
HOWELL         CLEAR     61  42  50 CALM      29.86S                  

CITY           SKY/WX    TMP DP  RH WIND       PRES   REMARKS
JACKSON        CLEAR     60  46  59 SW5       29.87S                  
LAMBERTVILLE   CLEAR     60  53  79 CALM      29.87R                  
LANSING        CLEAR     62  43  49 SW7       29.86R                  
LAPEER         FAIR      64  43  46 W3        29.86R                  
MASON          CLEAR     62  46  54 CALM      29.87R                  
MONROE         PTCLDY    61  55  80 CALM      29.86S                  
MT. CLEMENS    CLEAR     61  57  88 S7        29.85R                  
PONTIAC        PTCLDY    65  47  52 W3        29.86R                  
PORT HOPE        N/A     63  47  55 VRB6      29.79S                  
PORT HURON     MOCLDY    59  52  77 CALM      29.86R                  
TRI CITIES     CLEAR     62  46  55 SW7       29.82S                  
MIDLAND        FAIR      61  44  52 W3        29.81S                  
TROY           CLOUDY    67  50  55 SW5       29.88R                  
SAGINAW HB     CLEAR     63  41  45 SW6       29.82S                  
$$
MIZ043>046-050>051-056>058-064>065-071>073-077>080-300400-
SOUTHWEST LOWER MICHIGAN
  
CITY           SKY/WX    TMP DP  RH WIND       PRES   REMARKS
BATTLE CREEK   CLEAR     59  46  62 W6        29.88R                  
BENTON HARBOR  PTCLDY    56  48  74 CALM      29.88R                  
BIG RAPIDS     CLEAR     56  44  63 W6        29.82S                  
COLDWATER      CLEAR     60  45  56 SW3       29.89R                  
FREMONT        CLOUDY    59  44  56 W9        29.85R                  
HOLLAND        PTCLDY    58  47  66 W7        29.88R                  
GRAND RAPIDS   PTCLDY    60  48  64 SW7       29.85R                  
IONIA          FAIR      59  46  60 SW7       29.84S                  
KALAMAZOO      CLEAR     58  45  62 SW5       29.88R                  
LUDINGTON      CLOUDY    53  49  87 SW5       29.82R                  
MARSHALL       CLEAR     60  46  61 CALM      29.87S                  
MOUNT PLEASANT CLEAR     59  45  58 SW5       29.82S                  
MUSKEGON       MOCLDY    58  50  75 NW12      29.86R                  
SOUTH HAVEN    PTCLDY    56  49  77 CALM      29.88R                  
$$
MIZ016>042-300400-
NORTHERN LOWER MICHIGAN
  
CITY           SKY/WX    TMP DP  RH WIND       PRES   REMARKS
ALPENA         MOCLDY    59  48  67 SW5       29.77R                  
BEAVER ISLAND  CLOUDY    52  47  81 SW12G20   29.73S                  
BELLAIRE       PTCLDY    58  47  65 S5        29.76S                  
CADILLAC       RAIN      54  49  82 W9G21     29.81R                  
CHARLEVOIX     CLOUDY    58  46  66 SW9       29.77S                  
FRANKFORT      CLEAR     53  44  72 SW3       29.79R                  
GAYLORD        CLEAR     57  44  62 SW10      29.77R                  
GRAYLING       CLEAR     56  46  68 CALM      29.80R                  
HARBOR SPRINGS CLEAR     54  48  80 W3        29.74S                  
HOUGHTON LAKE  MOCLDY    61  45  55 SW9       29.80S                  
MANISTEE       MOCLDY    58  48  69 W6        29.80R                  
OSCODA         CLEAR     57  43  60 W8        29.78S                  
PELLSTON       CLEAR     53  45  74 SW5       29.74S                  
ROGERS CITY    CLEAR     56  48  73 SW5       29.76S                  
TRAVERSE CITY  PTCLDY    59  47  64 SW7       29.76R                  
$$
MIZ007>008-015-300400-
EASTERN UPPER MICHIGAN
  
CITY           SKY/WX    TMP DP  RH WIND       PRES   REMARKS
KINROSS        CLOUDY    51  48  89 SW3       29.72R                  
MACKINAC ISLAN CLOUDY    52  47  83 SW9       29.72F                  
NEWBERRY       LGT RAIN  51  50  97 W5        29.71S                  
S. S. MARIE    CLOUDY    55  51  86 SW5       29.71R                  
MUNISING         N/A     55  54  96 S3        29.68S                  
$$
MIZ004>006-011>014-085-300400-
CENTRAL UPPER MICHIGAN
  
CITY           SKY/WX    TMP DP  RH WIND       PRES   REMARKS
MANISTIQUE     CLOUDY    51  48  89 S5        29.71S                  
ESCANABA       CLOUDY    56  51  84 W9        29.72R                  
SAWYER-GWINN   CLOUDY    54  51  89 SW8       29.71R                  
$$
MIZ001>003-009>011-084-300400-
WESTERN UPPER MICHIGAN
  
CITY           SKY/WX    TMP DP  RH WIND       PRES   REMARKS
IRON MOUNTAIN  CLOUDY    53  49  86 W7        29.73R                  
HOUGHTON       LGT RAIN  51  47  86 W14       29.66R                  
COPPER HARBOR    N/A     54  50  86 NW10G20   29.62R                  
IRONWOOD       CLOUDY    52  47  83 W10       29.76R                  
$$

ABBREVIATIONS USED IN REMARKS
   TC - TEMPERATURE IN CELSIUS
  WCI - WIND CHILL INDEX
   HX - HEAT INDEX
  VSB - VISIBILITY

  

Return to Home page


Western Regional Climate Center, wrcc@dri.edu